Time,TemperatureF,DewpointF,PressureIn,WindDirection,WindDirectionDegrees,WindSpeedMPH,WindSpeedGustMPH,Humidity,HourlyPrecipIn,Conditions,Clouds,dailyrainin,SoftwareType,DateUTC
2013-08-03 00:25:00,77.7,72.8,29.77,WNW,284,0.0,0.0,85,0.00,CLR,,0.00,WeatherDisplay:10.37,2013-08-02 21:25:00,
2013-08-03 00:30:00,77.5,72.6,29.77,West,277,0.0,0.0,85,0.00,CLR,,0.00,WeatherDisplay:10.37,2013-08-02 21:30:00,
2013-08-03 00:35:00,77.3,72.4,29.77,West,277,0.0,0.0,85,0.00,CLR,,0.00,WeatherDisplay:10.37,2013-08-02 21:35:00,
2013-08-03 00:40:00,77.2,72.3,29.77,West,277,0.0,0.0,85,0.00,CLR,,0.00,WeatherDisplay:10.37,2013-08-02 21:40:00,
2013-08-03 00:45:00,77.2,72.3,29.77,West,277,0.0,0.0,85,0.00,CLR,,0.00,WeatherDisplay:10.37,2013-08-02 21:45:00,
2013-08-03 00:50:00,77.1,72.2,29.77,West,277,0.0,0.0,85,0.00,CLR,,0.00,WeatherDisplay:10.37,2013-08-02 21:50:00,
2013-08-03 00:55:00,76.9,72.1,29.77,West,277,0.0,0.0,85,0.00,CLR,,0.00,WeatherDisplay:10.37,2013-08-02 21:55:00,
2013-08-03 01:00:00,76.8,72.3,29.77,West,277,0.0,0.0,86,0.00,CLR,,0.00,WeatherDisplay:10.37,2013-08-02 22:00:00,
2013-08-03 01:05:00,76.7,72.6,29.77,West,277,0.0,0.0,87,0.00,SCT,,0.00,WeatherDisplay:10.37,2013-08-02 22:05:00,
2013-08-03 01:10:00,76.8,72.6,29.76,West,277,0.0,0.0,87,0.00,SCT,,0.00,WeatherDisplay:10.37,2013-08-02 22:10:00,
2013-08-03 01:15:00,76.8,72.7,29.76,West,277,0.0,0.0,87,0.00,SCT,,0.00,WeatherDisplay:10.37,2013-08-02 22:15:00,
2013-08-03 01:20:00,76.9,72.7,29.76,West,277,0.0,0.0,87,0.00,SCT,,0.00,WeatherDisplay:10.37,2013-08-02 22:20:00,
2013-08-03 01:25:00,76.8,72.6,29.76,West,277,0.0,0.0,87,0.00,SCT,,0.00,WeatherDisplay:10.37,2013-08-02 22:25:00,
2013-08-03 01:30:00,76.7,72.5,29.76,West,277,0.0,0.0,87,0.00,SCT,,0.00,WeatherDisplay:10.37,2013-08-02 22:30:00,
2013-08-03 01:35:00,76.7,72.5,29.76,West,277,0.0,0.0,87,0.00,SCT,,0.00,WeatherDisplay:10.37,2013-08-02 22:35:00,
2013-08-03 01:40:00,76.7,72.5,29.75,West,277,0.0,0.0,87,0.00,SCT,,0.00,WeatherDisplay:10.37,2013-08-02 22:40:00,
2013-08-03 01:50:00,76.5,72.3,29.75,West,277,0.0,0.0,87,0.00,SCT,,0.00,WeatherDisplay:10.37,2013-08-02 22:50:00,
2013-08-03 01:55:00,76.3,72.2,29.75,West,277,0.0,0.0,87,0.00,SCT,,0.00,WeatherDisplay:10.37,2013-08-02 22:55:00,
2013-08-03 02:00:00,76.3,72.1,29.75,West,277,0.0,0.0,87,0.00,SCT,,0.00,WeatherDisplay:10.37,2013-08-02 23:00:00,
2013-08-03 02:05:00,76.3,72.1,29.75,West,277,0.0,0.0,87,0.00,SCT,,0.00,WeatherDisplay:10.37,2013-08-02 23:05:00,
2013-08-03 02:10:00,76.3,72.2,29.75,West,277,0.0,0.0,87,0.00,SCT,,0.00,WeatherDisplay:10.37,2013-08-02 23:10:00,
2013-08-03 02:15:00,76.4,72.2,29.75,West,277,0.0,0.0,87,0.00,SCT,,0.00,WeatherDisplay:10.37,2013-08-02 23:15:00,
2013-08-03 02:20:00,76.5,72.0,29.75,West,277,0.0,0.0,86,0.00,SCT,,0.00,WeatherDisplay:10.37,2013-08-02 23:20:00,
2013-08-03 02:25:00,76.6,72.1,29.75,West,277,0.0,0.0,86,0.00,SCT,,0.00,WeatherDisplay:10.37,2013-08-02 23:25:00,
2013-08-03 02:30:00,76.8,72.3,29.75,West,277,0.0,0.0,86,0.00,SCT,,0.00,WeatherDisplay:10.37,2013-08-02 23:30:00,
2013-08-03 02:35:00,77.0,72.1,29.75,West,277,0.0,0.0,85,0.00,SCT,,0.00,WeatherDisplay:10.37,2013-08-02 23:35:00,
2013-08-03 02:40:00,77.2,72.3,29.75,West,277,0.0,0.0,85,0.00,SCT,,0.00,WeatherDisplay:10.37,2013-08-02 23:40:00,
2013-08-03 02:45:00,77.2,72.3,29.75,West,277,0.0,0.0,85,0.00,SCT,,0.00,WeatherDisplay:10.37,2013-08-02 23:45:00,
2013-08-03 02:50:00,77.2,72.0,29.75,West,277,0.0,0.0,84,0.00,SCT,,0.00,WeatherDisplay:10.37,2013-08-02 23:50:00,
2013-08-03 02:55:00,77.3,72.4,29.75,West,277,0.0,0.0,85,0.00,SCT,,0.00,WeatherDisplay:10.37,2013-08-02 23:55:00,
2013-08-03 03:00:00,77.3,72.4,29.75,West,277,0.0,0.0,85,0.00,SCT,,0.00,WeatherDisplay:10.37,2013-08-03 00:00:00,
2013-08-03 03:04:00,77.4,72.5,29.75,West,277,0.0,1.0,85,0.00,SCT,,0.00,WeatherDisplay:10.37,2013-08-03 00:04:00,
2013-08-03 03:10:00,77.4,72.5,29.75,West,277,0.0,0.0,85,0.00,SCT,,0.00,WeatherDisplay:10.37,2013-08-03 00:10:00,
2013-08-03 03:15:00,77.4,72.5,29.75,West,277,0.0,1.0,85,0.00,SCT,,0.00,WeatherDisplay:10.37,2013-08-03 00:15:00,
2013-08-03 03:20:00,77.5,72.6,29.75,West,277,0.0,0.0,85,0.00,SCT,,0.00,WeatherDisplay:10.37,2013-08-03 00:20:00,
2013-08-03 03:25:00,77.5,72.6,29.75,West,277,0.0,0.0,85,0.00,SCT,,0.00,WeatherDisplay:10.37,2013-08-03 00:25:00,
2013-08-03 03:30:00,77.6,72.7,29.75,West,277,0.0,0.0,85,0.00,SCT,,0.00,WeatherDisplay:10.37,2013-08-03 00:30:00,
2013-08-03 03:35:00,77.6,72.7,29.75,West,277,0.0,1.0,85,0.00,BKN,,0.00,WeatherDisplay:10.37,2013-08-03 00:35:00,
2013-08-03 03:40:00,77.7,72.8,29.75,West,277,0.0,0.0,85,0.00,BKN,,0.00,WeatherDisplay:10.37,2013-08-03 00:40:00,
2013-08-03 03:45:00,77.7,72.8,29.75,West,277,0.0,0.0,85,0.00,BKN,,0.00,WeatherDisplay:10.37,2013-08-03 00:45:00,
2013-08-03 03:50:00,77.7,72.5,29.75,West,277,0.0,1.0,84,0.00,BKN,,0.00,WeatherDisplay:10.37,2013-08-03 00:50:00,
2013-08-03 03:55:00,77.7,72.8,29.75,West,277,0.0,1.0,85,0.00,BKN,,0.00,WeatherDisplay:10.37,2013-08-03 00:55:00,
2013-08-03 04:00:00,77.7,72.8,29.75,West,277,0.0,1.0,85,0.00,BKN,,0.00,WeatherDisplay:10.37,2013-08-03 01:00:00,
2013-08-03 04:10:00,77.9,73.0,29.75,West,277,0.0,0.0,85,0.00,BKN,,0.00,WeatherDisplay:10.37,2013-08-03 01:10:00,
2013-08-03 04:20:00,78.0,73.2,29.75,West,277,0.0,0.0,85,0.00,BKN,,0.00,WeatherDisplay:10.37,2013-08-03 01:20:00,
2013-08-03 04:25:00,78.1,73.2,29.75,West,277,0.0,0.0,85,0.00,BKN,,0.00,WeatherDisplay:10.37,2013-08-03 01:25:00,
2013-08-03 04:30:00,78.2,73.3,29.75,West,277,0.0,0.0,85,0.00,BKN,,0.00,WeatherDisplay:10.37,2013-08-03 01:30:00,
2013-08-03 04:35:00,78.2,73.3,29.75,West,277,0.0,1.0,85,0.00,BKN,,0.00,WeatherDisplay:10.37,2013-08-03 01:35:00,
2013-08-03 04:40:00,78.2,73.3,29.75,West,277,0.0,0.0,85,0.00,BKN,,0.00,WeatherDisplay:10.37,2013-08-03 01:40:00,
2013-08-03 04:45:00,78.1,73.2,29.75,West,277,0.0,1.0,85,0.00,BKN,,0.00,WeatherDisplay:10.37,2013-08-03 01:45:00,
2013-08-03 04:50:00,78.1,73.2,29.75,West,277,0.0,1.0,85,0.00,BKN,,0.00,WeatherDisplay:10.37,2013-08-03 01:50:00,
2013-08-03 04:54:00,78.1,73.2,29.75,West,277,0.0,1.0,85,0.00,BKN,,0.00,WeatherDisplay:10.37,2013-08-03 01:54:00,
2013-08-03 05:00:00,78.1,73.2,29.75,West,277,0.0,0.0,85,0.00,BKN,,0.00,WeatherDisplay:10.37,2013-08-03 02:00:00,
2013-08-03 05:04:00,78.1,73.2,29.75,West,277,0.0,1.0,85,0.00,BKN,,0.00,WeatherDisplay:10.37,2013-08-03 02:04:00,
2013-08-03 05:10:00,78.1,73.2,29.75,West,274,0.0,2.0,85,0.00,BKN,,0.00,WeatherDisplay:10.37,2013-08-03 02:10:00,
2013-08-03 05:15:00,78.1,73.2,29.75,West,268,0.0,1.0,85,0.00,BKN,,0.00,WeatherDisplay:10.37,2013-08-03 02:15:00,
2013-08-03 05:20:00,78.1,73.2,29.75,West,268,0.0,2.0,85,0.00,BKN,,0.00,WeatherDisplay:10.37,2013-08-03 02:20:00,
2013-08-03 05:25:00,78.1,73.2,29.76,West,268,0.0,1.0,85,0.00,BKN,,0.00,WeatherDisplay:10.37,2013-08-03 02:25:00,
2013-08-03 05:30:00,78.1,73.2,29.76,West,268,0.0,1.0,85,0.00,BKN,,0.00,WeatherDisplay:10.37,2013-08-03 02:30:00,
2013-08-03 05:34:00,78.1,73.2,29.76,West,268,0.0,1.0,85,0.00,BKN,,0.00,WeatherDisplay:10.37,2013-08-03 02:34:00,
2013-08-03 05:40:00,78.1,73.2,29.76,West,268,0.0,0.0,85,0.00,BKN,,0.00,WeatherDisplay:10.37,2013-08-03 02:40:00,
2013-08-03 05:45:00,78.0,73.1,29.76,WSW,248,0.0,1.0,85,0.00,BKN,,0.00,WeatherDisplay:10.37,2013-08-03 02:45:00,
2013-08-03 05:50:00,78.0,73.1,29.76,South,176,0.0,0.0,85,0.00,BKN,,0.00,WeatherDisplay:10.37,2013-08-03 02:50:00,
2013-08-03 05:55:00,78.0,73.1,29.76,SSE,168,0.0,0.0,85,0.00,BKN,,0.00,WeatherDisplay:10.37,2013-08-03 02:55:00,
2013-08-03 06:00:00,77.9,73.0,29.76,SSE,168,0.0,0.0,85,0.00,BKN,,0.00,WeatherDisplay:10.37,2013-08-03 03:00:00,
2013-08-03 06:05:00,77.8,72.9,29.76,SSE,168,0.0,0.0,85,0.00,BKN,,0.00,WeatherDisplay:10.37,2013-08-03 03:05:00,
2013-08-03 06:10:00,77.7,72.8,29.76,SSE,168,0.0,1.0,85,0.00,BKN,,0.00,WeatherDisplay:10.37,2013-08-03 03:10:00,
2013-08-03 06:15:00,77.5,72.6,29.76,SSE,168,0.0,1.0,85,0.00,BKN,,0.00,WeatherDisplay:10.37,2013-08-03 03:15:00,
2013-08-03 06:20:00,77.3,72.4,29.76,SSE,168,0.0,2.0,85,0.00,BKN,,0.00,WeatherDisplay:10.37,2013-08-03 03:20:00,
2013-08-03 06:25:00,77.1,72.3,29.76,South,171,0.0,1.0,85,0.00,BKN,,0.00,WeatherDisplay:10.37,2013-08-03 03:25:00,
2013-08-03 06:30:00,77.0,72.1,29.76,South,171,0.0,1.0,85,0.00,BKN,,0.00,WeatherDisplay:10.37,2013-08-03 03:30:00,
2013-08-03 06:35:00,76.9,72.4,29.76,South,171,0.0,0.0,86,0.00,BKN,,0.00,WeatherDisplay:10.37,2013-08-03 03:35:00,
2013-08-03 06:45:00,76.9,72.4,29.76,South,170,0.0,1.0,86,0.00,BKN,,0.00,WeatherDisplay:10.37,2013-08-03 03:45:00,
2013-08-03 06:50:00,77.0,72.2,29.76,SSE,166,0.0,1.0,85,0.00,SCT,,0.00,WeatherDisplay:10.37,2013-08-03 03:50:00,
2013-08-03 06:55:00,77.2,72.0,29.76,SSE,163,0.0,1.0,84,0.00,SCT,,0.00,WeatherDisplay:10.37,2013-08-03 03:55:00,
2013-08-03 07:00:00,77.6,72.0,29.76,South,190,0.0,2.0,83,0.00,SCT,,0.00,WeatherDisplay:10.37,2013-08-03 04:00:00,
2013-08-03 07:05:00,78.0,72.0,29.76,SSW,195,0.0,2.0,82,0.00,SCT,,0.00,WeatherDisplay:10.37,2013-08-03 04:05:00,
2013-08-03 07:10:00,78.4,72.1,29.76,ESE,109,0.0,3.0,81,0.00,SCT,,0.00,WeatherDisplay:10.37,2013-08-03 04:10:00,
2013-08-03 07:15:00,78.9,72.5,29.76,ESE,106,0.0,2.0,81,0.00,SCT,,0.00,WeatherDisplay:10.37,2013-08-03 04:15:00,
2013-08-03 07:20:00,79.3,72.6,29.77,SE,143,1.0,3.0,80,0.00,SCT,,0.00,WeatherDisplay:10.37,2013-08-03 04:20:00,
2013-08-03 07:25:00,79.7,72.6,29.77,SE,141,1.0,3.0,79,0.00,SCT,,0.00,WeatherDisplay:10.37,2013-08-03 04:25:00,
2013-08-03 07:30:00,80.0,72.5,29.77,SSE,152,0.0,5.0,78,0.00,SCT,,0.00,WeatherDisplay:10.37,2013-08-03 04:30:00,
2013-08-03 07:35:00,80.2,72.7,29.77,SSW,202,1.0,3.0,78,0.00,SCT,,0.00,WeatherDisplay:10.37,2013-08-03 04:35:00,
2013-08-03 07:40:00,80.3,72.8,29.77,South,172,0.0,3.0,78,0.00,SCT,,0.00,WeatherDisplay:10.37,2013-08-03 04:40:00,
2013-08-03 07:44:00,80.4,72.9,29.77,SSE,156,1.0,5.0,78,0.00,SCT,,0.00,WeatherDisplay:10.37,2013-08-03 04:44:00,
2013-08-03 07:50:00,80.5,73.0,29.77,South,189,1.0,3.0,78,0.00,SCT,,0.00,WeatherDisplay:10.37,2013-08-03 04:50:00,
2013-08-03 07:54:00,80.8,73.3,29.77,SW,223,0.0,5.0,78,0.00,SCT,,0.00,WeatherDisplay:10.37,2013-08-03 04:54:00,
2013-08-03 07:59:00,81.0,73.1,29.77,SSW,208,1.0,3.0,77,0.00,SCT,,0.00,WeatherDisplay:10.37,2013-08-03 04:59:00,
2013-08-03 08:05:00,81.2,73.3,29.78,SSW,212,2.0,6.0,77,0.00,SCT,,0.00,WeatherDisplay:10.37,2013-08-03 05:05:00,
2013-08-03 08:10:00,81.2,73.3,29.78,SSW,211,1.0,6.0,77,0.00,SCT,,0.00,WeatherDisplay:10.37,2013-08-03 05:10:00,
2013-08-03 08:15:00,81.5,73.6,29.78,SSW,199,1.0,4.0,77,0.00,SCT,,0.00,WeatherDisplay:10.37,2013-08-03 05:15:00,
2013-08-03 08:19:00,81.6,73.3,29.78,SSW,199,1.0,6.0,76,0.00,BKN,,0.00,WeatherDisplay:10.37,2013-08-03 05:19:00,
2013-08-03 08:25:00,81.8,73.5,29.78,SSW,200,2.0,5.0,76,0.00,BKN,,0.00,WeatherDisplay:10.37,2013-08-03 05:25:00,
2013-08-03 08:30:00,82.0,73.7,29.78,SSW,205,1.0,5.0,76,0.00,BKN,,0.00,WeatherDisplay:10.37,2013-08-03 05:30:00,
2013-08-03 08:35:00,82.2,73.5,29.78,SSW,202,2.0,9.0,75,0.00,BKN,,0.00,WeatherDisplay:10.37,2013-08-03 05:35:00,
2013-08-03 08:40:00,82.6,73.9,29.78,SSW,207,0.0,4.0,75,0.00,BKN,,0.00,WeatherDisplay:10.37,2013-08-03 05:40:00,
2013-08-03 08:45:00,83.3,74.1,29.78,South,187,1.0,4.0,74,0.00,BKN,,0.00,WeatherDisplay:10.37,2013-08-03 05:45:00,
2013-08-03 08:50:00,83.9,74.3,29.78,SSE,160,1.0,6.0,73,0.00,BKN,,0.00,WeatherDisplay:10.37,2013-08-03 05:50:00,
2013-08-03 08:55:00,84.2,74.2,29.79,South,177,1.0,8.0,72,0.00,BKN,,0.00,WeatherDisplay:10.37,2013-08-03 05:55:00,
2013-08-03 09:00:00,84.5,74.5,29.78,SSE,168,1.0,4.0,72,0.00,BKN,,0.00,WeatherDisplay:10.37,2013-08-03 06:00:00,
2013-08-03 09:05:00,84.5,74.0,29.78,South,190,3.0,7.0,71,0.00,BKN,,0.00,WeatherDisplay:10.37,2013-08-03 06:05:00,
2013-08-03 09:09:00,84.3,74.3,29.78,South,187,1.0,3.0,72,0.00,BKN,,0.00,WeatherDisplay:10.37,2013-08-03 06:09:00,
2013-08-03 09:14:00,84.8,73.9,29.78,South,169,3.0,7.0,70,0.00,BKN,,0.00,WeatherDisplay:10.37,2013-08-03 06:14:00,
2013-08-03 09:20:00,84.9,74.0,29.78,SSW,195,0.0,6.0,70,0.00,BKN,,0.00,WeatherDisplay:10.37,2013-08-03 06:20:00,
2013-08-03 09:25:00,85.4,74.1,29.79,SSW,194,1.0,4.0,69,0.00,BKN,,0.00,WeatherDisplay:10.37,2013-08-03 06:25:00,
2013-08-03 09:30:00,85.7,73.5,29.78,South,191,1.0,5.0,67,0.00,BKN,,0.00,WeatherDisplay:10.37,2013-08-03 06:30:00,
2013-08-03 09:35:00,86.1,73.9,29.78,SSE,160,0.0,2.0,67,0.00,BKN,,0.00,WeatherDisplay:10.37,2013-08-03 06:35:00,
2013-08-03 09:40:00,86.9,73.7,29.78,SSW,201,3.0,7.0,65,0.00,BKN,,0.00,WeatherDisplay:10.37,2013-08-03 06:40:00,
2013-08-03 09:45:00,86.8,74.1,29.78,SSE,151,2.0,5.0,66,0.00,BKN,,0.00,WeatherDisplay:10.37,2013-08-03 06:45:00,
2013-08-03 09:50:00,86.5,73.3,29.78,South,185,3.0,5.0,65,0.00,BKN,,0.00,WeatherDisplay:10.37,2013-08-03 06:50:00,
2013-08-03 09:55:00,86.7,74.0,29.78,SSW,207,1.0,6.0,66,0.00,BKN,,0.00,WeatherDisplay:10.37,2013-08-03 06:55:00,
2013-08-03 10:00:00,87.0,73.8,29.78,SW,233,2.0,6.0,65,0.00,BKN,,0.00,WeatherDisplay:10.37,2013-08-03 07:00:00,
2013-08-03 10:05:00,87.3,74.1,29.78,SW,229,3.0,8.0,65,0.00,SCT,,0.00,WeatherDisplay:10.37,2013-08-03 07:05:00,
2013-08-03 10:10:00,86.9,72.8,29.78,SW,225,2.0,6.0,63,0.00,SCT,,0.00,WeatherDisplay:10.37,2013-08-03 07:10:00,
2013-08-03 10:14:00,86.8,72.7,29.78,SW,221,1.0,5.0,63,0.00,SCT,,0.00,WeatherDisplay:10.37,2013-08-03 07:14:00,
2013-08-03 10:20:00,87.4,73.3,29.78,SW,219,1.0,7.0,63,0.00,SCT,,0.00,WeatherDisplay:10.37,2013-08-03 07:20:00,
2013-08-03 10:29:00,89.0,73.8,29.78,SW,219,2.0,6.0,61,0.00,SCT,,0.00,WeatherDisplay:10.37,2013-08-03 07:29:00,
2013-08-03 10:35:00,89.2,74.0,29.77,SW,218,1.0,5.0,61,0.00,SCT,,0.00,WeatherDisplay:10.37,2013-08-03 07:35:00,
2013-08-03 10:40:00,89.6,73.4,29.78,SW,229,2.0,5.0,59,0.00,SCT,,0.00,WeatherDisplay:10.37,2013-08-03 07:40:00,
2013-08-03 10:45:00,89.2,72.5,29.78,SW,215,3.0,6.0,58,0.00,SCT,,0.00,WeatherDisplay:10.37,2013-08-03 07:45:00,
2013-08-03 10:50:00,89.2,73.0,29.77,SW,219,2.0,8.0,59,0.00,SCT,,0.00,WeatherDisplay:10.37,2013-08-03 07:50:00,
2013-08-03 10:55:00,89.3,73.6,29.78,SW,226,2.0,8.0,60,0.00,SCT,,0.00,WeatherDisplay:10.37,2013-08-03 07:55:00,
2013-08-03 11:00:00,89.4,73.7,29.77,SW,229,1.0,6.0,60,0.00,SCT,,0.00,WeatherDisplay:10.37,2013-08-03 08:00:00,
2013-08-03 11:05:00,89.4,73.7,29.77,WSW,246,3.0,8.0,60,0.00,FEW,,0.00,WeatherDisplay:10.37,2013-08-03 08:05:00,
2013-08-03 11:10:00,89.2,73.5,29.77,SW,232,2.0,5.0,60,0.00,FEW,,0.00,WeatherDisplay:10.37,2013-08-03 08:10:00,
2013-08-03 11:14:00,89.1,72.9,29.77,WSW,237,2.0,9.0,59,0.00,FEW,,0.00,WeatherDisplay:10.37,2013-08-03 08:14:00,
2013-08-03 11:20:00,89.4,72.6,29.77,WSW,252,0.0,3.0,58,0.00,FEW,,0.00,WeatherDisplay:10.37,2013-08-03 08:20:00,
2013-08-03 11:25:00,89.3,72.6,29.77,SSW,200,3.0,10.0,58,0.00,FEW,,0.00,WeatherDisplay:10.37,2013-08-03 08:25:00,
2013-08-03 11:30:00,89.2,73.5,29.77,SSW,204,3.0,6.0,60,0.00,FEW,,0.00,WeatherDisplay:10.37,2013-08-03 08:30:00,
2013-08-03 11:34:00,89.3,73.5,29.77,SW,218,5.0,7.0,60,0.00,FEW,,0.00,WeatherDisplay:10.37,2013-08-03 08:34:00,
2013-08-03 11:40:00,89.9,73.1,29.77,SW,224,2.0,7.0,58,0.00,FEW,,0.00,WeatherDisplay:10.37,2013-08-03 08:40:00,
2013-08-03 11:45:00,90.4,73.1,29.77,SW,230,3.0,9.0,57,0.00,FEW,,0.00,WeatherDisplay:10.37,2013-08-03 08:45:00,
2013-08-03 11:50:00,90.4,72.6,29.77,SW,231,2.0,8.0,56,0.00,FEW,,0.00,WeatherDisplay:10.37,2013-08-03 08:50:00,
2013-08-03 11:55:00,90.4,73.0,29.76,SW,229,3.0,8.0,57,0.00,FEW,,0.00,WeatherDisplay:10.37,2013-08-03 08:55:00,
2013-08-03 12:00:00,90.6,73.3,29.77,SW,232,5.0,8.0,57,0.00,FEW,,0.00,WeatherDisplay:10.37,2013-08-03 09:00:00,
2013-08-03 12:05:00,90.6,73.8,29.76,SW,218,5.0,9.0,58,0.00,FEW,,0.00,WeatherDisplay:10.37,2013-08-03 09:05:00,
2013-08-03 12:10:00,90.3,73.5,29.76,SW,230,2.0,9.0,58,0.00,FEW,,0.00,WeatherDisplay:10.37,2013-08-03 09:10:00,
2013-08-03 12:15:00,90.5,74.2,29.76,WSW,248,3.0,10.0,59,0.00,FEW,,0.00,WeatherDisplay:10.37,2013-08-03 09:15:00,
2013-08-03 12:19:00,90.5,73.7,29.76,WSW,252,5.0,10.0,58,0.00,FEW,,0.00,WeatherDisplay:10.37,2013-08-03 09:19:00,
2013-08-03 12:25:00,90.6,73.8,29.76,WSW,240,3.0,9.0,58,0.00,FEW,,0.00,WeatherDisplay:10.37,2013-08-03 09:25:00,
2013-08-03 12:30:00,90.6,73.8,29.77,WSW,238,5.0,10.0,58,0.00,FEW,,0.00,WeatherDisplay:10.37,2013-08-03 09:30:00,
2013-08-03 12:35:00,90.1,73.4,29.77,WSW,242,3.0,10.0,58,0.00,FEW,,0.00,WeatherDisplay:10.37,2013-08-03 09:35:00,
2013-08-03 12:39:00,90.0,73.2,29.77,WSW,244,5.0,9.0,58,0.00,FEW,,0.00,WeatherDisplay:10.37,2013-08-03 09:39:00,
2013-08-03 12:45:00,90.0,73.7,29.77,WSW,252,5.0,10.0,59,0.00,FEW,,0.00,WeatherDisplay:10.37,2013-08-03 09:45:00,
2013-08-03 12:50:00,90.3,73.5,29.77,WSW,244,5.0,8.0,58,0.00,FEW,,0.00,WeatherDisplay:10.37,2013-08-03 09:50:00,
2013-08-03 12:59:00,90.3,74.0,29.77,SW,227,6.0,9.0,59,0.00,FEW,,0.00,WeatherDisplay:10.37,2013-08-03 09:59:00,
2013-08-03 13:05:00,90.0,73.7,29.77,SW,233,6.0,12.0,59,0.00,FEW,,0.00,WeatherDisplay:10.37,2013-08-03 10:05:00,
2013-08-03 13:10:00,89.9,73.7,29.77,WSW,252,5.0,9.0,59,0.00,FEW,,0.00,WeatherDisplay:10.37,2013-08-03 10:10:00,
2013-08-03 13:15:00,89.7,73.5,29.77,WSW,248,2.0,9.0,59,0.00,FEW,,0.00,WeatherDisplay:10.37,2013-08-03 10:15:00,
2013-08-03 13:20:00,89.8,73.0,29.77,WSW,237,6.0,10.0,58,0.00,FEW,,0.00,WeatherDisplay:10.37,2013-08-03 10:20:00,
2013-08-03 13:25:00,90.0,73.7,29.77,WSW,250,5.0,11.0,59,0.00,FEW,,0.00,WeatherDisplay:10.37,2013-08-03 10:25:00,
2013-08-03 13:30:00,90.1,73.8,29.77,WSW,245,3.0,12.0,59,0.00,FEW,,0.00,WeatherDisplay:10.37,2013-08-03 10:30:00,
2013-08-03 13:35:00,90.0,74.3,29.77,WSW,256,6.0,12.0,60,0.00,FEW,,0.00,WeatherDisplay:10.37,2013-08-03 10:35:00,
2013-08-03 13:44:00,90.4,73.6,29.77,WSW,237,6.0,12.0,58,0.00,FEW,,0.00,WeatherDisplay:10.37,2013-08-03 10:44:00,
2013-08-03 13:50:00,90.2,72.9,29.77,WSW,239,5.0,12.0,57,0.00,FEW,,0.00,WeatherDisplay:10.37,2013-08-03 10:50:00,
2013-08-03 13:54:00,89.9,73.6,29.77,West,263,5.0,9.0,59,0.00,FEW,,0.00,WeatherDisplay:10.37,2013-08-03 10:54:00,
2013-08-03 14:00:00,89.3,73.6,29.77,West,265,3.0,12.0,60,0.00,FEW,,0.00,WeatherDisplay:10.37,2013-08-03 11:00:00,
2013-08-03 14:05:00,89.3,73.1,29.76,West,263,2.0,9.0,59,0.00,FEW,,0.00,WeatherDisplay:10.37,2013-08-03 11:05:00,
2013-08-03 14:10:00,89.6,73.9,29.76,WSW,251,3.0,9.0,60,0.00,FEW,,0.00,WeatherDisplay:10.37,2013-08-03 11:10:00,
2013-08-03 14:15:00,89.8,73.6,29.76,WSW,237,6.0,10.0,59,0.00,FEW,,0.00,WeatherDisplay:10.37,2013-08-03 11:15:00,
2013-08-03 14:19:00,89.8,73.6,29.76,WSW,243,6.0,9.0,59,0.00,FEW,,0.00,WeatherDisplay:10.37,2013-08-03 11:19:00,
2013-08-03 14:25:00,89.8,74.1,29.76,WSW,247,3.0,12.0,60,0.00,FEW,,0.00,WeatherDisplay:10.37,2013-08-03 11:25:00,
2013-08-03 14:30:00,89.8,74.6,29.77,West,260,3.0,9.0,61,0.00,FEW,,0.00,WeatherDisplay:10.37,2013-08-03 11:30:00,
2013-08-03 14:40:00,89.4,74.2,29.76,West,260,3.0,12.0,61,0.00,FEW,,0.00,WeatherDisplay:10.37,2013-08-03 11:40:00,
2013-08-03 14:45:00,89.6,73.4,29.76,West,264,3.0,10.0,59,0.00,FEW,,0.00,WeatherDisplay:10.37,2013-08-03 11:45:00,
2013-08-03 14:49:00,89.9,73.6,29.76,WSW,247,3.0,10.0,59,0.00,FEW,,0.00,WeatherDisplay:10.37,2013-08-03 11:49:00,
2013-08-03 14:55:00,89.6,73.4,29.76,WSW,252,5.0,8.0,59,0.00,FEW,,0.00,WeatherDisplay:10.37,2013-08-03 11:55:00,
2013-08-03 15:00:00,89.2,73.0,29.76,West,270,5.0,9.0,59,0.00,FEW,,0.00,WeatherDisplay:10.37,2013-08-03 12:00:00,
2013-08-03 15:04:00,89.3,73.6,29.76,WSW,252,3.0,9.0,60,0.00,FEW,,0.00,WeatherDisplay:10.37,2013-08-03 12:04:00,
2013-08-03 15:09:00,89.6,73.8,29.76,WSW,247,5.0,10.0,60,0.00,FEW,,0.00,WeatherDisplay:10.37,2013-08-03 12:09:00,
2013-08-03 15:15:00,89.6,73.9,29.75,WSW,250,1.0,8.0,60,0.00,FEW,,0.00,WeatherDisplay:10.37,2013-08-03 12:15:00,
2013-08-03 15:20:00,89.6,73.9,29.76,SW,233,3.0,8.0,60,0.00,FEW,,0.00,WeatherDisplay:10.37,2013-08-03 12:20:00,
2013-08-03 15:30:00,89.8,74.1,29.75,WSW,237,3.0,7.0,60,0.00,FEW,,0.00,WeatherDisplay:10.37,2013-08-03 12:30:00,
2013-08-03 15:35:00,90.1,72.8,29.75,SW,225,5.0,7.0,57,0.00,FEW,,0.00,WeatherDisplay:10.37,2013-08-03 12:35:00,
2013-08-03 15:39:00,90.2,73.9,29.75,WSW,242,2.0,9.0,59,0.00,FEW,,0.00,WeatherDisplay:10.37,2013-08-03 12:39:00,
2013-08-03 15:44:00,89.8,73.0,29.75,WSW,255,5.0,9.0,58,0.00,FEW,,0.00,WeatherDisplay:10.37,2013-08-03 12:44:00,
2013-08-03 15:49:00,89.7,74.0,29.75,WSW,254,2.0,8.0,60,0.00,CLR,,0.00,WeatherDisplay:10.37,2013-08-03 12:49:00,
2013-08-03 15:55:00,89.7,73.5,29.75,West,263,5.0,13.0,59,0.00,CLR,,0.00,WeatherDisplay:10.37,2013-08-03 12:55:00,
2013-08-03 15:59:00,89.4,73.2,29.75,WSW,256,3.0,9.0,59,0.00,CLR,,0.00,WeatherDisplay:10.37,2013-08-03 12:59:00,
2013-08-03 16:05:00,89.5,73.3,29.75,WSW,257,3.0,10.0,59,0.00,CLR,,0.00,WeatherDisplay:10.37,2013-08-03 13:05:00,
2013-08-03 16:10:00,89.3,73.1,29.75,West,265,5.0,11.0,59,0.00,CLR,,0.00,WeatherDisplay:10.37,2013-08-03 13:10:00,
2013-08-03 16:15:00,89.1,73.9,29.76,West,266,3.0,12.0,61,0.00,CLR,,0.00,WeatherDisplay:10.37,2013-08-03 13:15:00,
2013-08-03 16:20:00,89.1,73.9,29.75,WSW,250,2.0,8.0,61,0.00,CLR,,0.00,WeatherDisplay:10.37,2013-08-03 13:20:00,
2013-08-03 16:24:00,89.2,73.5,29.75,WSW,252,6.0,12.0,60,0.00,CLR,,0.00,WeatherDisplay:10.37,2013-08-03 13:24:00,
2013-08-03 16:30:00,88.8,73.1,29.75,WSW,248,5.0,9.0,60,0.00,CLR,,0.00,WeatherDisplay:10.37,2013-08-03 13:30:00,
2013-08-03 16:35:00,88.4,73.2,29.75,WSW,239,2.0,8.0,61,0.00,FEW,,0.00,WeatherDisplay:10.37,2013-08-03 13:35:00,
2013-08-03 16:40:00,88.6,72.9,29.75,WSW,252,5.0,12.0,60,0.00,FEW,,0.00,WeatherDisplay:10.37,2013-08-03 13:40:00,
2013-08-03 16:44:00,88.6,73.4,29.75,West,262,2.0,7.0,61,0.00,FEW,,0.00,WeatherDisplay:10.37,2013-08-03 13:44:00,
2013-08-03 16:49:00,88.8,73.6,29.75,WSW,253,3.0,8.0,61,0.00,FEW,,0.00,WeatherDisplay:10.37,2013-08-03 13:49:00,
2013-08-03 16:55:00,88.7,73.1,29.75,SW,222,5.0,10.0,60,0.00,FEW,,0.00,WeatherDisplay:10.37,2013-08-03 13:55:00,
2013-08-03 16:59:00,88.5,73.3,29.75,SW,220,3.0,7.0,61,0.00,FEW,,0.00,WeatherDisplay:10.37,2013-08-03 13:59:00,
2013-08-03 17:05:00,88.5,72.8,29.75,WSW,240,3.0,9.0,60,0.00,FEW,,0.00,WeatherDisplay:10.37,2013-08-03 14:05:00,
2013-08-03 17:10:00,88.6,73.9,29.75,WSW,245,3.0,9.0,62,0.00,FEW,,0.00,WeatherDisplay:10.37,2013-08-03 14:10:00,
2013-08-03 17:15:00,88.7,73.5,29.75,WSW,241,3.0,8.0,61,0.00,FEW,,0.00,WeatherDisplay:10.37,2013-08-03 14:15:00,
2013-08-03 17:20:00,88.6,73.9,29.75,SW,236,3.0,9.0,62,0.00,FEW,,0.00,WeatherDisplay:10.37,2013-08-03 14:20:00,
2013-08-03 17:25:00,88.5,72.8,29.75,WSW,245,6.0,10.0,60,0.00,FEW,,0.00,WeatherDisplay:10.37,2013-08-03 14:25:00,
2013-08-03 17:30:00,88.0,73.4,29.75,WSW,258,2.0,9.0,62,0.00,FEW,,0.00,WeatherDisplay:10.37,2013-08-03 14:30:00,
2013-08-03 17:35:00,87.2,73.5,29.75,West,267,2.0,10.0,64,0.00,FEW,,0.00,WeatherDisplay:10.37,2013-08-03 14:35:00,
2013-08-03 17:40:00,87.3,74.1,29.75,West,267,3.0,8.0,65,0.00,FEW,,0.00,WeatherDisplay:10.37,2013-08-03 14:40:00,
2013-08-03 17:45:00,87.3,73.6,29.75,WSW,245,2.0,8.0,64,0.00,FEW,,0.00,WeatherDisplay:10.37,2013-08-03 14:45:00,
2013-08-03 17:49:00,87.4,73.8,29.75,WSW,253,2.0,9.0,64,0.00,FEW,,0.00,WeatherDisplay:10.37,2013-08-03 14:49:00,
2013-08-03 17:55:00,87.2,73.0,29.75,WSW,253,3.0,8.0,63,0.00,FEW,,0.00,WeatherDisplay:10.37,2013-08-03 14:55:00,
2013-08-03 18:00:00,86.5,72.9,29.75,WSW,245,3.0,8.0,64,0.00,FEW,,0.00,WeatherDisplay:10.37,2013-08-03 15:00:00,
2013-08-03 18:05:00,86.0,73.4,29.75,West,262,2.0,8.0,66,0.00,FEW,,0.00,WeatherDisplay:10.37,2013-08-03 15:05:00,
2013-08-03 18:10:00,86.3,73.6,29.75,West,262,3.0,6.0,66,0.00,FEW,,0.00,WeatherDisplay:10.37,2013-08-03 15:10:00,
2013-08-03 18:15:00,85.9,73.2,29.75,West,261,3.0,10.0,66,0.00,FEW,,0.00,WeatherDisplay:10.37,2013-08-03 15:15:00,
2013-08-03 18:20:00,85.6,73.3,29.75,WSW,257,2.0,6.0,67,0.00,FEW,,0.00,WeatherDisplay:10.37,2013-08-03 15:20:00,
2013-08-03 18:24:00,85.7,73.5,29.75,WSW,253,2.0,5.0,67,0.00,FEW,,0.00,WeatherDisplay:10.37,2013-08-03 15:24:00,
2013-08-03 18:29:00,85.4,72.7,29.75,WSW,255,2.0,7.0,66,0.00,FEW,,0.00,WeatherDisplay:10.37,2013-08-03 15:29:00,
2013-08-03 18:35:00,85.4,72.7,29.75,SW,235,3.0,7.0,66,0.00,FEW,,0.00,WeatherDisplay:10.37,2013-08-03 15:35:00,
2013-08-03 18:40:00,85.1,72.9,29.75,SW,221,1.0,4.0,67,0.00,FEW,,0.00,WeatherDisplay:10.37,2013-08-03 15:40:00,
2013-08-03 18:45:00,84.7,72.6,29.76,WSW,241,2.0,8.0,67,0.00,FEW,,0.00,WeatherDisplay:10.37,2013-08-03 15:45:00,
2013-08-03 18:50:00,84.4,72.7,29.76,WSW,237,2.0,5.0,68,0.00,FEW,,0.00,WeatherDisplay:10.37,2013-08-03 15:50:00,
2013-08-03 18:55:00,84.3,73.0,29.76,WSW,241,2.0,6.0,69,0.00,FEW,,0.00,WeatherDisplay:10.37,2013-08-03 15:55:00,
2013-08-03 19:00:00,84.3,73.0,29.76,WSW,253,2.0,6.0,69,0.00,FEW,,0.00,WeatherDisplay:10.37,2013-08-03 16:00:00,
2013-08-03 19:05:00,84.0,72.7,29.76,West,264,2.0,5.0,69,0.00,FEW,,0.00,WeatherDisplay:10.37,2013-08-03 16:05:00,
2013-08-03 19:10:00,83.7,72.9,29.76,West,271,1.0,4.0,70,0.00,FEW,,0.00,WeatherDisplay:10.37,2013-08-03 16:10:00,
2013-08-03 19:14:00,83.6,72.8,29.76,WSW,248,3.0,6.0,70,0.00,FEW,,0.00,WeatherDisplay:10.37,2013-08-03 16:14:00,
2013-08-03 19:19:00,83.3,72.5,29.76,SW,230,2.0,5.0,70,0.00,FEW,,0.00,WeatherDisplay:10.37,2013-08-03 16:19:00,
2013-08-03 19:25:00,83.2,72.4,29.76,WSW,237,2.0,5.0,70,0.00,FEW,,0.00,WeatherDisplay:10.37,2013-08-03 16:25:00,
2013-08-03 19:29:00,82.9,72.5,29.76,West,265,1.0,6.0,71,0.00,FEW,,0.00,WeatherDisplay:10.37,2013-08-03 16:29:00,
2013-08-03 19:35:00,82.7,72.7,29.76,West,268,2.0,4.0,72,0.00,FEW,,0.00,WeatherDisplay:10.37,2013-08-03 16:35:00,
2013-08-03 19:40:00,82.4,72.4,29.76,West,274,1.0,3.0,72,0.00,FEW,,0.00,WeatherDisplay:10.37,2013-08-03 16:40:00,
2013-08-03 19:45:00,82.2,72.7,29.77,West,280,0.0,3.0,73,0.00,FEW,,0.00,WeatherDisplay:10.37,2013-08-03 16:45:00,
2013-08-03 19:50:00,82.2,72.7,29.77,West,280,0.0,2.0,73,0.00,FEW,,0.00,WeatherDisplay:10.37,2013-08-03 16:50:00,
2013-08-03 19:55:00,82.2,72.3,29.77,West,280,1.0,2.0,72,0.00,FEW,,0.00,WeatherDisplay:10.37,2013-08-03 16:55:00,
2013-08-03 20:00:00,82.0,72.1,29.77,SW,229,1.0,4.0,72,0.00,FEW,,0.00,WeatherDisplay:10.37,2013-08-03 17:00:00,
2013-08-03 20:05:00,81.9,72.4,29.77,SW,216,1.0,3.0,73,0.00,FEW,,0.00,WeatherDisplay:10.37,2013-08-03 17:05:00,
2013-08-03 20:10:00,81.7,72.2,29.76,SW,220,1.0,3.0,73,0.00,FEW,,0.00,WeatherDisplay:10.37,2013-08-03 17:10:00,
2013-08-03 20:15:00,81.5,72.0,29.76,SW,229,0.0,4.0,73,0.00,FEW,,0.00,WeatherDisplay:10.37,2013-08-03 17:15:00,
2013-08-03 20:20:00,81.4,71.9,29.77,SW,232,0.0,2.0,73,0.00,FEW,,0.00,WeatherDisplay:10.37,2013-08-03 17:20:00,
2013-08-03 20:25:00,81.3,72.2,29.77,SW,232,0.0,3.0,74,0.00,FEW,,0.00,WeatherDisplay:10.37,2013-08-03 17:25:00,
2013-08-03 20:30:00,81.2,72.1,29.77,SW,231,0.0,2.0,74,0.00,FEW,,0.00,WeatherDisplay:10.37,2013-08-03 17:30:00,
2013-08-03 20:34:00,81.1,72.0,29.77,SW,231,1.0,3.0,74,0.00,FEW,,0.00,WeatherDisplay:10.37,2013-08-03 17:34:00,
2013-08-03 20:40:00,81.1,72.0,29.77,SW,231,1.0,2.0,74,0.00,FEW,,0.00,WeatherDisplay:10.37,2013-08-03 17:40:00,
2013-08-03 20:44:00,81.0,71.9,29.77,SW,231,1.0,2.0,74,0.00,FEW,,0.00,WeatherDisplay:10.37,2013-08-03 17:44:00,
2013-08-03 20:50:00,81.0,71.9,29.77,SW,231,0.0,2.0,74,0.00,FEW,,0.00,WeatherDisplay:10.37,2013-08-03 17:50:00,
2013-08-03 20:55:00,81.0,71.9,29.77,SW,231,0.0,2.0,74,0.00,FEW,,0.00,WeatherDisplay:10.37,2013-08-03 17:55:00,
2013-08-03 21:00:00,80.9,71.9,29.77,SW,231,0.0,2.0,74,0.00,FEW,,0.00,WeatherDisplay:10.37,2013-08-03 18:00:00,
2013-08-03 21:05:00,80.8,71.7,29.77,SW,231,1.0,2.0,74,0.00,FEW,,0.00,WeatherDisplay:10.37,2013-08-03 18:05:00,
2013-08-03 21:10:00,80.8,71.7,29.77,SW,231,0.0,2.0,74,0.00,FEW,,0.00,WeatherDisplay:10.37,2013-08-03 18:10:00,
2013-08-03 21:15:00,80.7,71.6,29.77,SW,231,0.0,2.0,74,0.00,FEW,,0.00,WeatherDisplay:10.37,2013-08-03 18:15:00,
2013-08-03 21:20:00,80.6,71.5,29.77,SW,231,0.0,1.0,74,0.00,FEW,,0.00,WeatherDisplay:10.37,2013-08-03 18:20:00,
2013-08-03 21:24:00,80.6,71.5,29.77,SW,231,0.0,1.0,74,0.00,FEW,,0.00,WeatherDisplay:10.37,2013-08-03 18:24:00,
2013-08-03 21:30:00,80.3,71.6,29.77,SW,231,0.0,1.0,75,0.00,FEW,,0.00,WeatherDisplay:10.37,2013-08-03 18:30:00,
2013-08-03 21:35:00,80.1,71.5,29.77,SW,231,0.0,1.0,75,0.00,FEW,,0.00,WeatherDisplay:10.37,2013-08-03 18:35:00,
2013-08-03 21:40:00,80.0,71.7,29.77,SW,231,0.0,2.0,76,0.00,FEW,,0.00,WeatherDisplay:10.37,2013-08-03 18:40:00,
2013-08-03 21:44:00,80.0,71.8,29.77,SW,231,0.0,2.0,76,0.00,FEW,,0.00,WeatherDisplay:10.37,2013-08-03 18:44:00,
2013-08-03 21:50:00,80.0,71.7,29.77,SW,231,0.0,1.0,76,0.00,FEW,,0.00,WeatherDisplay:10.37,2013-08-03 18:50:00,
2013-08-03 21:54:00,79.9,71.7,29.78,SW,231,0.0,1.0,76,0.00,FEW,,0.00,WeatherDisplay:10.37,2013-08-03 18:54:00,
2013-08-03 22:00:00,79.8,71.6,29.77,SW,231,0.0,1.0,76,0.00,FEW,,0.00,WeatherDisplay:10.37,2013-08-03 19:00:00,
2013-08-03 22:05:00,79.8,71.9,29.78,SW,231,0.0,2.0,77,0.00,FEW,,0.00,WeatherDisplay:10.37,2013-08-03 19:05:00,
2013-08-03 22:10:00,79.8,71.9,29.78,SW,231,0.0,2.0,77,0.00,FEW,,0.00,WeatherDisplay:10.37,2013-08-03 19:10:00,
2013-08-03 22:15:00,79.7,71.8,29.77,SW,231,0.0,2.0,77,0.00,FEW,,0.00,WeatherDisplay:10.37,2013-08-03 19:15:00,
2013-08-03 22:20:00,79.7,71.8,29.77,SW,231,0.0,1.0,77,0.00,FEW,,0.00,WeatherDisplay:10.37,2013-08-03 19:20:00,
2013-08-03 22:25:00,79.6,71.8,29.78,SW,231,1.0,2.0,77,0.00,FEW,,0.00,WeatherDisplay:10.37,2013-08-03 19:25:00,
2013-08-03 22:30:00,79.6,71.8,29.78,SW,231,0.0,1.0,77,0.00,FEW,,0.00,WeatherDisplay:10.37,2013-08-03 19:30:00,
2013-08-03 22:35:00,79.6,71.8,29.77,SW,231,0.0,2.0,77,0.00,BKN,,0.00,WeatherDisplay:10.37,2013-08-03 19:35:00,
2013-08-03 22:45:00,79.6,71.7,29.77,SW,231,1.0,3.0,77,0.00,BKN,,0.00,WeatherDisplay:10.37,2013-08-03 19:45:00,
2013-08-03 22:50:00,79.4,71.6,29.77,SW,231,1.0,3.0,77,0.00,BKN,,0.00,WeatherDisplay:10.37,2013-08-03 19:50:00,
2013-08-03 22:54:00,79.3,71.8,29.77,SW,231,1.0,3.0,78,0.00,BKN,,0.00,WeatherDisplay:10.37,2013-08-03 19:54:00,
2013-08-03 22:59:00,79.3,71.4,29.77,SW,231,0.0,2.0,77,0.00,BKN,,0.00,WeatherDisplay:10.37,2013-08-03 19:59:00,
2013-08-03 23:05:00,79.2,71.7,29.77,SW,231,0.0,1.0,78,0.00,SCT,,0.00,WeatherDisplay:10.37,2013-08-03 20:05:00,
2013-08-03 23:09:00,79.1,71.6,29.77,SW,231,0.0,1.0,78,0.00,SCT,,0.00,WeatherDisplay:10.37,2013-08-03 20:09:00,
2013-08-03 23:15:00,78.9,71.5,29.77,SW,231,0.0,1.0,78,0.00,SCT,,0.00,WeatherDisplay:10.37,2013-08-03 20:15:00,
2013-08-03 23:20:00,78.8,71.4,29.77,SW,231,0.0,0.0,78,0.00,SCT,,0.00,WeatherDisplay:10.37,2013-08-03 20:20:00,
2013-08-03 23:25:00,78.6,71.2,29.77,SW,231,0.0,0.0,78,0.00,SCT,,0.00,WeatherDisplay:10.37,2013-08-03 20:25:00,
2013-08-03 23:30:00,78.5,71.4,29.77,SW,231,0.0,0.0,79,0.00,SCT,,0.00,WeatherDisplay:10.37,2013-08-03 20:30:00,
2013-08-03 23:35:00,78.4,71.4,29.77,SW,231,0.0,1.0,79,0.00,SCT,,0.00,WeatherDisplay:10.37,2013-08-03 20:35:00,
2013-08-03 23:40:00,78.6,71.5,29.77,SW,231,0.0,1.0,79,0.00,SCT,,0.00,WeatherDisplay:10.37,2013-08-03 20:40:00,
2013-08-03 23:45:00,78.7,71.6,29.77,SW,231,0.0,2.0,79,0.00,SCT,,0.00,WeatherDisplay:10.37,2013-08-03 20:45:00,
2013-08-03 23:50:00,78.8,71.4,29.77,SW,231,0.0,2.0,78,0.00,SCT,,0.00,WeatherDisplay:10.37,2013-08-03 20:50:00,
2013-08-03 23:55:00,78.8,71.4,29.77,SW,231,0.0,0.0,78,0.00,SCT,,0.00,WeatherDisplay:10.37,2013-08-03 20:55:00,